Cheboygan, MI

5:32 PM EDT on September 24, 2016 (GMT -0400)
Cheboygan

Weather History for KSLH - November, 2013

Change the Weather History Date:

Monday, November 11, 2013

  Actual Average (KPLN) Record (KPLN)
Temperature  
Mean Temperature 33 °F -  
Max Temperature 40 °F 40 °F 68 °F (2012)
Min Temperature 26 °F 28 °F 15 °F (1987)
Degree Days  
Heating Degree Days 32    
Moisture  
Dew Point 23 °F    
Average Humidity 72    
Maximum Humidity 90    
Minimum Humidity 56    
Precipitation  
Precipitation 0.00 in - - ()
Sea Level Pressure  
Sea Level Pressure 30.09 in    
Wind  
Wind Speed 13 mph (WNW)    
Max Wind Speed 25 mph    
Max Gust Speed 34 mph    
Visibility 8 miles    
Events Rain , Snow    
Averages and records for this station are not official NWS values.
T = Trace of Precipitation, MM = Missing Value Source: NWS Daily Summary

Daily Weather History Graph

Daily Weather History Graph

Search for Another Location

Airport or City:

Trip Planner

Search our weather history database for the weather conditions in past years. The results will help you decide how hot, cold, wet, or windy it might be!

Date:

Astronomy

Nov. 11, 2013 Rise Set
Actual Time 7:32 AM EST 5:11 PM EST
Civil Twilight 7:00 AM EST 5:43 PM EST
Nautical Twilight 6:24 AM EST 6:19 PM EST
Astronomical Twilight 5:49 AM EST 6:53 PM EST
Moon 2:08 PM EST (11/11) 12:58 AM EST (11/11)
Length of Visible Light 10h 42m
Length of Day
9h 39m
Waxing Gibbous, 66% of the Moon is Illuminated
Nov 11
Waxing Gibbous
Nov 17
Full
Nov 25
Last Quarter
Dec 2
New
Dec 9
First Quarter

Hourly Weather History & Observations

Time (EST) Temp. Windchill Dew Point Humidity Pressure Visibility Wind Dir Wind Speed Gust Speed Precip Events Conditions
12:16 AM 38.7 °F 32.4 °F 31.8 °F 76% 30.03 in 10.0 mi SSW 9.2 mph - N/A   Clear
12:36 AM 39.0 °F 33.4 °F 32.0 °F 76% 30.02 in 10.0 mi SSW 8.1 mph - N/A   Scattered Clouds
12:56 AM 38.8 °F 33.8 °F 32.0 °F 76% 30.01 in 10.0 mi South 6.9 mph - N/A   Scattered Clouds
1:16 AM 39.4 °F 35.2 °F 32.0 °F 75% 30.00 in 10.0 mi SSW 5.8 mph - N/A   Mostly Cloudy
1:36 AM 39.4 °F 33.8 °F 32.0 °F 75% 29.98 in 10.0 mi SSW 8.1 mph - N/A   Scattered Clouds
1:56 AM 39.6 °F 35.4 °F 32.0 °F 74% 29.97 in 10.0 mi South 5.8 mph - N/A   Scattered Clouds
2:16 AM 39.7 °F 35.6 °F 32.2 °F 74% 29.96 in 10.0 mi South 5.8 mph - N/A   Scattered Clouds
2:36 AM 40.5 °F 34.6 °F 32.5 °F 73% 29.96 in 10.0 mi SW 9.2 mph 16.1 mph N/A   Scattered Clouds
2:56 AM 39.9 °F 31.8 °F 33.6 °F 78% 29.97 in 5.0 mi WSW 15.0 mph 25.3 mph N/A   Mostly Cloudy
3:16 AM 38.5 °F 31.1 °F 34.3 °F 85% 29.96 in 5.0 mi WSW 11.5 mph 19.6 mph N/A Rain Light Rain
3:36 AM 38.3 °F 31.9 °F 34.7 °F 87% 29.95 in 7.0 mi WSW 9.2 mph - N/A Rain Light Rain
3:56 AM 37.9 °F 32.7 °F 34.7 °F 88% 29.94 in 5.0 mi West 6.9 mph 16.1 mph N/A Rain Light Rain
4:16 AM 37.6 °F 30.5 °F 34.7 °F 89% 29.94 in 5.0 mi West 10.4 mph - N/A Rain Light Rain
4:36 AM 37.4 °F 32.1 °F 34.5 °F 89% 29.93 in 7.0 mi WSW 6.9 mph - N/A Rain Light Rain
4:56 AM 37.4 °F 30.3 °F 34.7 °F 90% 29.93 in 5.0 mi West 10.4 mph - N/A Snow Light Snow
5:16 AM 37.0 °F 29.3 °F 34.2 °F 89% 29.92 in 7.0 mi West 11.5 mph 16.1 mph N/A Rain Light Rain
5:35 AM 37.0 °F 30.4 °F 34.2 °F 89% 29.92 in 7.0 mi West 9.2 mph - N/A Rain Light Rain
5:56 AM 36.7 °F 30.5 °F 34.0 °F 90% 29.92 in 7.0 mi West 8.1 mph - N/A Snow Light Snow
6:16 AM 37.0 °F 31.6 °F 34.2 °F 89% 29.91 in 10.0 mi WSW 6.9 mph - N/A   Mostly Cloudy
6:36 AM 36.7 °F 26.0 °F 33.3 °F 87% 29.93 in 4.0 mi NW 20.7 mph 28.8 mph N/A Snow Light Snow
6:56 AM 32.7 °F 21.4 °F 30.0 °F 90% 29.94 in 1.2 mi NNW 18.4 mph 29.9 mph N/A Snow Light Snow
7:16 AM 32.0 °F 19.8 °F 28.6 °F 87% 29.96 in 2.0 mi NNW 20.7 mph 29.9 mph N/A Snow Light Snow
7:36 AM 31.5 °F 20.1 °F 28.4 °F 88% 29.98 in 1.2 mi NW 17.3 mph 27.6 mph N/A Snow Light Snow
7:56 AM 31.1 °F 18.9 °F 27.0 °F 85% 29.98 in 2.0 mi NW 19.6 mph 25.3 mph N/A Snow Light Snow
8:16 AM 30.4 °F 18.0 °F 25.5 °F 82% 30.00 in 1.5 mi NW 19.6 mph 32.2 mph N/A Snow Light Snow
8:36 AM 30.2 °F 18.9 °F 25.7 °F 83% 30.01 in 2.0 mi NW 16.1 mph 27.6 mph N/A Snow Light Snow
8:56 AM 30.2 °F 20.2 °F 24.6 °F 80% 30.02 in 5.0 mi NW 12.7 mph 26.5 mph N/A Snow Light Snow
9:16 AM 30.0 °F 18.3 °F 22.5 °F 73% 30.03 in 7.0 mi NW 17.3 mph 34.5 mph N/A Snow Light Snow
9:36 AM 29.8 °F 18.9 °F 23.4 °F 77% 30.04 in 5.0 mi NW 15.0 mph 24.2 mph N/A Snow Light Snow
9:56 AM 29.8 °F 17.3 °F 20.3 °F 68% 30.04 in 10.0 mi WNW 19.6 mph 25.3 mph N/A   Mostly Cloudy
10:16 AM 29.3 °F 19.1 °F 20.1 °F 69% 30.05 in 10.0 mi NW 12.7 mph 25.3 mph N/A   Mostly Cloudy
10:36 AM 29.3 °F 20.2 °F 18.7 °F 65% 30.06 in 10.0 mi NW 10.4 mph 23.0 mph N/A   Mostly Cloudy
10:56 AM 29.3 °F 17.0 °F 16.9 °F 60% 30.06 in 10.0 mi NW 18.4 mph 26.5 mph N/A   Mostly Cloudy
11:16 AM 29.1 °F 17.9 °F 17.4 °F 62% 30.07 in 10.0 mi NW 15.0 mph 25.3 mph N/A   Mostly Cloudy
11:36 AM 29.1 °F 17.1 °F 16.0 °F 58% 30.08 in 10.0 mi WNW 17.3 mph 33.4 mph N/A   Scattered Clouds
11:56 AM 29.8 °F 17.7 °F 15.8 °F 56% 30.08 in 10.0 mi NW 18.4 mph 26.5 mph N/A   Scattered Clouds
12:16 PM 30.2 °F 19.3 °F 16.7 °F 57% 30.08 in 10.0 mi NW 15.0 mph 27.6 mph N/A   Scattered Clouds
12:36 PM 29.8 °F 17.3 °F 16.2 °F 57% 30.08 in 10.0 mi NW 19.6 mph 29.9 mph N/A   Scattered Clouds
12:56 PM 30.0 °F 17.9 °F 18.7 °F 63% 30.08 in 10.0 mi WNW 18.4 mph 25.3 mph N/A   Scattered Clouds
1:16 PM 30.6 °F 17.9 °F 17.6 °F 59% 30.08 in 10.0 mi WNW 20.7 mph 28.8 mph N/A   Scattered Clouds
1:36 PM 29.1 °F 17.5 °F 18.9 °F 66% 30.09 in 7.0 mi WNW 16.1 mph 25.3 mph N/A Snow Light Snow
1:56 PM 30.7 °F 19.6 °F 18.5 °F 60% 30.09 in 10.0 mi WNW 16.1 mph 20.7 mph N/A   Clear
2:16 PM 29.8 °F 16.0 °F 19.0 °F 64% 30.10 in 5.0 mi NW 24.2 mph 32.2 mph N/A Snow Light Snow
2:36 PM 30.9 °F 20.2 °F 18.7 °F 61% 30.10 in 10.0 mi NW 15.0 mph 24.2 mph N/A   Scattered Clouds
2:56 PM 31.3 °F 17.9 °F 18.5 °F 59% 30.10 in 10.0 mi WNW 24.2 mph 29.9 mph N/A   Mostly Cloudy
3:16 PM 30.7 °F 20.0 °F 21.0 °F 67% 30.12 in 7.0 mi NW 15.0 mph 21.9 mph N/A Snow Light Snow
3:36 PM 30.7 °F 18.5 °F 19.9 °F 64% 30.13 in 10.0 mi NW 19.6 mph 25.3 mph N/A   Scattered Clouds
3:56 PM 29.3 °F 17.3 °F 18.5 °F 64% 30.13 in 10.0 mi NW 17.3 mph 28.8 mph N/A   Scattered Clouds
4:16 PM 29.1 °F 18.4 °F 17.8 °F 63% 30.15 in 10.0 mi NW 13.8 mph 26.5 mph N/A   Mostly Cloudy
4:36 PM 28.6 °F 15.6 °F 18.0 °F 64% 30.15 in 10.0 mi NW 19.6 mph 28.8 mph N/A   Mostly Cloudy
4:56 PM 28.0 °F 15.7 °F 18.0 °F 66% 30.15 in 10.0 mi WNW 17.3 mph 25.3 mph N/A   Scattered Clouds
5:16 PM 28.0 °F 14.9 °F 17.6 °F 65% 30.16 in 10.0 mi WNW 19.6 mph 28.8 mph N/A   Scattered Clouds
5:36 PM 28.0 °F 16.1 °F 19.0 °F 69% 30.17 in 10.0 mi NW 16.1 mph 24.2 mph N/A   Scattered Clouds
5:56 PM 28.0 °F 15.7 °F 17.8 °F 65% 30.18 in 10.0 mi NW 17.3 mph 24.2 mph N/A   Scattered Clouds
6:16 PM 27.5 °F 13.2 °F 17.2 °F 65% 30.19 in 10.0 mi NW 23.0 mph 31.1 mph N/A   Clear
6:36 PM 27.5 °F 15.0 °F 17.4 °F 66% 30.20 in 10.0 mi NW 17.3 mph 32.2 mph N/A   Scattered Clouds
6:56 PM 27.0 °F 11.9 °F 17.4 °F 67% 30.21 in 10.0 mi NW 25.3 mph 31.1 mph N/A   Mostly Cloudy
7:16 PM 27.0 °F 12.5 °F 16.5 °F 65% 30.23 in 10.0 mi NW 23.0 mph 33.4 mph N/A   Mostly Cloudy
7:36 PM 27.0 °F 14.7 °F 16.0 °F 63% 30.24 in 10.0 mi NW 16.1 mph 33.4 mph N/A   Mostly Cloudy
7:56 PM 27.1 °F 13.8 °F 15.6 °F 62% 30.25 in 10.0 mi NNW 19.6 mph 33.4 mph N/A   Mostly Cloudy
8:16 PM 26.8 °F 12.9 °F 15.4 °F 62% 30.25 in 10.0 mi NW 20.7 mph 25.3 mph N/A   Mostly Cloudy
8:35 PM 27.3 °F 15.6 °F 15.8 °F 62% 30.26 in 10.0 mi NW 15.0 mph 27.6 mph N/A   Mostly Cloudy
8:56 PM 27.1 °F 15.4 °F 16.3 °F 64% 30.27 in 10.0 mi WNW 15.0 mph 23.0 mph N/A   Mostly Cloudy
9:16 PM 26.6 °F 15.2 °F 17.2 °F 68% 30.28 in 10.0 mi NW 13.8 mph 24.2 mph N/A   Scattered Clouds
9:36 PM 27.3 °F 16.1 °F 18.3 °F 69% - 10.0 mi NW 13.8 mph 20.7 mph N/A   Scattered Clouds
9:56 PM 27.5 °F 15.9 °F 18.7 °F 69% 30.29 in 10.0 mi NW 15.0 mph 24.2 mph N/A   Mostly Cloudy
10:16 PM 27.5 °F 15.9 °F 19.4 °F 72% 30.30 in 10.0 mi NW 15.0 mph 24.2 mph N/A Snow Light Snow
10:36 PM 27.9 °F 14.7 °F 19.0 °F 69% 30.30 in 10.0 mi NW 19.6 mph 31.1 mph N/A   Mostly Cloudy
10:56 PM 28.0 °F 15.3 °F 18.9 °F 68% 30.31 in 10.0 mi NW 18.4 mph 25.3 mph N/A   Overcast
11:16 PM 27.9 °F 15.1 °F 18.3 °F 67% 30.32 in 10.0 mi NW 18.4 mph 26.5 mph N/A   Overcast
11:36 PM 27.5 °F 15.4 °F 19.4 °F 72% 30.33 in 10.0 mi NW 16.1 mph 24.2 mph N/A   Mostly Cloudy
11:56 PM 27.5 °F 13.9 °F 19.2 °F 71% 30.33 in 10.0 mi NW 20.7 mph 32.2 mph N/A   Mostly Cloudy